• Join FlightAware (Why Join?)
  • Login
  • US Flag 
12:46AM EDT


 

Airport Tracker/Info


-or-


 

Live Flight TrackerFlight Track Log ✈ UCA3586 ✈ 25-Jul-2013 ✈ KBWI - KEWR

Flight Track Log - Related Links

Times and Time Zones

All times are in EDT time to prevent confusion due to time zone crossing. See the UCA3586 flight status page for this flight to view local times or setup timezone preferences in your user account.

Time Position Orientation Groundspeed Altitude Reporting Facility
EDT Latitude Longitude Course Direction KTS MPH feet Rate Location/Type
10:28AM 39.1833 -76.7167 46° Northeast 145 167 1,700  Level Potomac TRACON
10:30AM 39.1732 -76.6155 97° East  Level FlightAware Approximate
10:30AM 39.1333 -76.7833 97° East 188 216 3,800  Level Potomac TRACON
10:31AM 39.1000 -76.7333 131° Southeast 200 230 4,900 1,200 Climbing Potomac TRACON
10:32AM 39.0500 -76.6833 142° Southeast 198 228 6,300 1,320 Climbing Potomac TRACON
10:34AM 39.2064 -76.1581 46° Northeast  Level FlightAware Approximate
10:34AM 39.1083 -76.6168 42° Northeast  Level FlightAware Approximate
10:34AM 39.0167 -76.5667 42° Northeast 190 219 8,900  Level Potomac TRACON
10:35AM 39.0167 -76.5000 90° East 228 262 9,000  Climbing Potomac TRACON
10:36AM 39.0333 -76.4000 78° East 260 299 9,000 300 Level Potomac TRACON
10:37AM 39.0667 -76.3333 57° Northeast 266 306 9,700 900 Climbing Potomac TRACON
10:38AM 39.1167 -76.2667 46° Northeast 240 276 10,800 600 Climbing Potomac TRACON
10:39AM 39.1667 -76.2167 38° Northeast 249 287 11,000  Climbing Potomac TRACON
10:42AM 39.3000 -76.0500 44° Northeast 277 319 11,000  Level Philadelphia TRACON
10:43AM 39.3667 -75.9833 38° Northeast 280 322 11,000  Level Philadelphia TRACON
10:44AM 39.4167 -75.9167 46° Northeast 277 319 11,000  Level Philadelphia TRACON
10:45AM 39.4667 -75.8500 46° Northeast 276 318 11,000  Level Philadelphia TRACON
10:46AM 39.5333 -75.7833 38° Northeast 276 318 11,000  Level Philadelphia TRACON
10:47AM 39.5833 -75.7167 46° Northeast 276 318 11,000  Level Philadelphia TRACON
10:48AM 39.6500 -75.6500 38° Northeast 278 320 11,000  Level Philadelphia TRACON
10:49AM 39.6833 -75.5833 57° Northeast 272 313 11,000  Level Philadelphia TRACON
10:50AM 39.7167 -75.4833 67° East 270 311 11,000  Level Philadelphia TRACON
10:51AM 39.7500 -75.3833 67° East 270 311 11,000 -360 Level Philadelphia TRACON
10:52AM 39.7667 -75.2833 78° East 285 328 10,300 -540 Descending Philadelphia TRACON
10:53AM 39.8000 -75.1833 67° East 291 335 10,000 -180 Descending Philadelphia TRACON
10:54AM 39.8333 -75.0833 67° East 277 319 10,000 -240 Level Philadelphia TRACON
10:55AM 39.8500 -75.0000 75° East 282 325 9,600 -600 Descending Philadelphia TRACON
10:56AM 39.9167 -74.9167 44° Northeast 299 344 8,800 -840 Descending Philadelphia TRACON
10:57AM 39.9833 -74.8000 53° Northeast 290 334 7,600 -780 Descending New York TRACON
10:58AM 40.0333 -74.7333 46° Northeast 284 327 7,000 -300 Descending New York TRACON
11:00AM 40.1000 -74.6500 44° Northeast 266 306 7,000  Level New York TRACON
11:00AM 40.1500 -74.5833 46° Northeast 265 305 7,000 -300 Level New York TRACON
11:01AM 40.1833 -74.5167 57° Northeast 269 310 6,500 -540 Descending New York TRACON
11:02AM 40.2500 -74.4500 37° Northeast 257 296 6,000 -600 Descending New York TRACON
11:03AM 40.3000 -74.4500 360° North 234 269 5,400 -1,020 Descending New York TRACON
11:04AM 40.3667 -74.4833 339° North 215 247 4,000 -720 Descending New York TRACON
11:05AM 40.4167 -74.5167 333° Northwest 219 252 4,000  Level New York TRACON
11:06AM 40.4167 -74.4500 90° East 211 243 4,000  Level New York TRACON
11:07AM 40.3833 -74.3833 123° Southeast 198 228 4,000  Level New York TRACON
11:08AM 40.4167 -74.3333 49° Northeast 199 229 4,000  Level New York TRACON
11:09AM 40.4667 -74.3000 27° Northeast 205 236 4,000  Level New York TRACON
11:10AM 40.5167 -74.3167 346° North 206 237 4,000  Level New York TRACON
11:11AM 40.5333 -74.3833 288° West 205 236 4,000  Level New York TRACON
11:12AM 40.5667 -74.4500 303° West 210 242 4,000  Level New York TRACON
11:13AM 40.5333 -74.5000 229° Southwest 199 229 4,000  Level New York TRACON
11:14AM 40.5000 -74.5500 229° Southwest 201 231 4,000  Level New York TRACON
11:15AM 40.4500 -74.6000 217° Southwest 182 209 4,000  Level New York TRACON
11:16AM 40.4000 -74.5833 166° South 172 198 4,000  Level New York TRACON
11:17AM 40.3667 -74.5833 180° South 176 203 4,000 -60 Level New York TRACON
11:18AM 40.3333 -74.5333 131° Southeast 183 211 3,900 -540 Descending New York TRACON
11:19AM 40.3500 -74.4833 66° East 171 197 3,000 -480 Descending New York TRACON
11:20AM 40.3667 -74.4167 72° East 163 188 3,000  Level New York TRACON
11:21AM 40.3833 -74.3667 66° East 159 183 3,000  Level New York TRACON
11:22AM 40.4000 -74.3167 66° East 160 184 3,000  Level New York TRACON
11:23AM 40.4333 -74.3167 360° North 185 213 3,000  Level New York TRACON
11:24AM 40.4833 -74.3000 14° North 173 199 3,000  Level New York TRACON
11:25AM 40.5333 -74.2667 27° Northeast 178 205 3,000 -300 Level New York TRACON
11:26AM 40.5667 -74.2500 21° North 162 186 2,400 -720 Descending New York TRACON
11:27AM 40.6167 -74.2167 27° Northeast 151 174 1,600 -780 Descending New York TRACON
11:28AM 40.6500 -74.2000 21° North 122 140 900 -660 Descending New York TRACON
11:29AM 40.6667 -74.1833 37° Northeast 112 129 300 -600 Descending New York TRACON
11:31AM 40.6833 -74.1667 35° Northeast  Level FlightAware Approximate
11:38AM 40.6925 -74.1687 35° Northeast  Level Estimated
11:39AM 40.6925 -74.1687 35° Northeast  Level Estimated